Time,TemperatureF,DewpointF,PressureIn,WindDirection,WindDirectionDegrees,WindSpeedMPH,WindSpeedGustMPH,Humidity,HourlyPrecipIn,Conditions,Clouds,dailyrainin,SoftwareType,DateUTC
2013-02-12 00:02:00,67.2,64.8,30.10,South,179,0.0,8.0,92,0.00,,,0.00,Wunderground v.1.15,2013-02-12 05:02:00,
2013-02-12 00:07:00,67.1,64.7,30.10,South,180,0.0,8.0,92,0.00,,,0.00,Wunderground v.1.15,2013-02-12 05:07:00,
2013-02-12 00:12:00,67.0,64.6,30.10,South,179,0.0,0.0,92,0.00,,,0.00,Wunderground v.1.15,2013-02-12 05:12:00,
2013-02-12 00:17:00,67.0,64.9,30.10,South,180,0.0,0.0,93,0.00,,,0.00,Wunderground v.1.15,2013-02-12 05:17:00,
2013-02-12 00:27:00,66.9,64.8,30.10,South,179,0.0,0.0,93,0.00,,,0.00,Wunderground v.1.15,2013-02-12 05:27:00,
2013-02-12 00:37:00,66.8,64.7,30.09,South,180,0.0,0.0,93,0.00,,,0.00,Wunderground v.1.15,2013-02-12 05:37:00,
2013-02-12 00:47:00,66.6,64.5,30.09,South,180,0.0,0.0,93,0.00,,,0.00,Wunderground v.1.15,2013-02-12 05:47:00,
2013-02-12 00:52:00,66.6,64.5,30.09,South,179,0.0,0.0,93,0.00,,,0.00,Wunderground v.1.15,2013-02-12 05:52:00,
2013-02-12 01:02:00,66.5,64.4,30.09,South,179,0.0,0.0,93,0.00,,,0.00,Wunderground v.1.15,2013-02-12 06:02:00,
2013-02-12 01:07:00,66.6,64.5,30.09,South,179,0.0,0.0,93,0.00,,,0.00,Wunderground v.1.15,2013-02-12 06:07:00,
2013-02-12 01:17:00,66.6,64.5,30.09,South,179,0.0,0.0,93,0.00,,,0.00,Wunderground v.1.15,2013-02-12 06:17:00,
2013-02-12 01:27:00,66.6,64.5,30.09,South,179,0.0,0.0,93,0.00,,,0.00,Wunderground v.1.15,2013-02-12 06:27:00,
2013-02-12 01:32:00,66.6,64.5,30.09,South,179,0.0,0.0,93,0.00,,,0.00,Wunderground v.1.15,2013-02-12 06:32:00,
2013-02-12 01:42:00,66.5,64.4,30.09,South,179,0.0,0.0,93,0.00,,,0.00,Wunderground v.1.15,2013-02-12 06:42:00,
2013-02-12 01:52:00,66.5,64.4,30.09,South,179,0.0,0.0,93,0.00,,,0.00,Wunderground v.1.15,2013-02-12 06:52:00,
2013-02-12 01:57:00,66.5,64.4,30.09,South,179,0.0,0.0,93,0.00,,,0.00,Wunderground v.1.15,2013-02-12 06:57:00,
2013-02-12 02:02:00,66.4,64.3,30.09,South,178,0.0,0.0,93,0.00,,,0.00,Wunderground v.1.15,2013-02-12 07:02:00,
2013-02-12 02:12:00,66.2,64.1,30.09,South,178,0.0,0.0,93,0.00,,,0.00,Wunderground v.1.15,2013-02-12 07:12:00,
2013-02-12 02:22:00,66.2,64.4,30.08,South,178,0.0,0.0,94,0.00,,,0.00,Wunderground v.1.15,2013-02-12 07:22:00,
2013-02-12 02:27:00,66.1,64.0,30.08,South,178,0.0,0.0,93,0.00,,,0.00,Wunderground v.1.15,2013-02-12 07:27:00,
2013-02-12 02:32:00,66.1,64.3,30.07,South,178,0.0,0.0,94,0.00,,,0.00,Wunderground v.1.15,2013-02-12 07:32:00,
2013-02-12 02:42:00,65.8,63.7,30.07,South,178,0.0,0.0,93,0.00,,,0.00,Wunderground v.1.15,2013-02-12 07:42:00,
2013-02-12 02:47:00,65.6,63.5,30.07,South,178,0.0,0.0,93,0.00,,,0.00,Wunderground v.1.15,2013-02-12 07:47:00,
2013-02-12 02:52:00,65.5,63.4,30.07,South,178,0.0,0.0,93,0.00,,,0.00,Wunderground v.1.15,2013-02-12 07:52:00,
2013-02-12 03:02:00,65.3,63.5,30.07,South,178,0.0,0.0,94,0.00,,,0.00,Wunderground v.1.15,2013-02-12 08:02:00,
2013-02-12 03:12:00,65.1,63.3,30.07,South,178,0.0,0.0,94,0.00,,,0.00,Wunderground v.1.15,2013-02-12 08:12:00,
2013-02-12 03:17:00,65.1,63.3,30.06,South,178,0.0,0.0,94,0.00,,,0.00,Wunderground v.1.15,2013-02-12 08:17:00,
2013-02-12 03:27:00,65.1,63.3,30.06,South,178,0.0,0.0,94,0.00,,,0.00,Wunderground v.1.15,2013-02-12 08:27:00,
2013-02-12 03:32:00,65.2,63.4,30.06,South,178,0.0,0.0,94,0.00,,,0.00,Wunderground v.1.15,2013-02-12 08:32:00,
2013-02-12 03:42:00,65.3,63.8,30.06,South,178,0.0,0.0,95,0.00,,,0.00,Wunderground v.1.15,2013-02-12 08:42:00,
2013-02-12 03:52:00,65.4,63.9,30.06,South,178,0.0,0.0,95,0.00,,,0.00,Wunderground v.1.15,2013-02-12 08:52:00,
2013-02-12 03:57:00,65.4,63.9,30.06,South,178,0.0,0.0,95,0.00,,,0.00,Wunderground v.1.15,2013-02-12 08:57:00,
2013-02-12 04:02:00,65.4,63.9,30.06,South,178,0.0,0.0,95,0.00,,,0.00,Wunderground v.1.15,2013-02-12 09:02:00,
2013-02-12 04:12:00,65.5,64.0,30.06,South,178,0.0,0.0,95,0.00,,,0.00,Wunderground v.1.15,2013-02-12 09:12:00,
2013-02-12 04:17:00,65.7,64.2,30.05,South,178,0.0,0.0,95,0.00,,,0.00,Wunderground v.1.15,2013-02-12 09:17:00,
2013-02-12 04:27:00,65.7,64.2,30.05,South,176,0.0,0.0,95,0.00,,,0.00,Wunderground v.1.15,2013-02-12 09:27:00,
2013-02-12 04:37:00,65.7,64.2,30.05,South,176,0.0,0.0,95,0.00,,,0.00,Wunderground v.1.15,2013-02-12 09:37:00,
2013-02-12 04:42:00,65.8,64.3,30.05,South,175,0.0,0.0,95,0.00,,,0.00,Wunderground v.1.15,2013-02-12 09:42:00,
2013-02-12 04:52:00,65.9,64.4,30.04,South,175,0.0,0.0,95,0.00,,,0.00,Wunderground v.1.15,2013-02-12 09:52:00,
2013-02-12 05:02:00,65.9,64.4,30.04,South,175,0.0,0.0,95,0.00,,,0.00,Wunderground v.1.15,2013-02-12 10:02:00,
2013-02-12 05:07:00,65.8,64.3,30.04,South,175,0.0,0.0,95,0.00,,,0.00,Wunderground v.1.15,2013-02-12 10:07:00,
2013-02-12 05:17:00,65.8,64.3,30.04,South,174,0.0,0.0,95,0.00,,,0.00,Wunderground v.1.15,2013-02-12 10:17:00,
2013-02-12 05:22:00,65.8,64.3,30.04,South,174,0.0,0.0,95,0.00,,,0.00,Wunderground v.1.15,2013-02-12 10:22:00,
2013-02-12 05:32:00,65.9,64.4,30.04,South,173,0.0,0.0,95,0.00,,,0.00,Wunderground v.1.15,2013-02-12 10:32:00,
2013-02-12 05:37:00,66.0,64.5,30.04,South,171,0.0,0.0,95,0.00,,,0.00,Wunderground v.1.15,2013-02-12 10:37:00,
2013-02-12 05:47:00,66.1,64.6,30.04,South,169,1.0,3.0,95,0.00,,,0.00,Wunderground v.1.15,2013-02-12 10:47:00,
2013-02-12 05:52:00,66.1,64.6,30.04,South,169,1.0,1.0,95,0.00,,,0.00,Wunderground v.1.15,2013-02-12 10:52:00,
2013-02-12 06:02:00,66.0,64.5,30.04,South,169,0.0,0.0,95,0.00,,,0.00,Wunderground v.1.15,2013-02-12 11:02:00,
2013-02-12 06:07:00,66.0,64.5,30.04,South,169,0.0,0.0,95,0.00,,,0.00,Wunderground v.1.15,2013-02-12 11:07:00,
2013-02-12 06:17:00,66.0,64.5,30.04,South,169,0.0,0.0,95,0.00,,,0.00,Wunderground v.1.15,2013-02-12 11:17:00,
2013-02-12 06:22:00,65.9,64.7,30.04,South,169,0.0,0.0,96,0.00,,,0.00,Wunderground v.1.15,2013-02-12 11:22:00,
2013-02-12 06:32:00,65.8,64.6,30.05,South,169,0.0,0.0,96,0.00,,,0.00,Wunderground v.1.15,2013-02-12 11:32:00,
2013-02-12 06:42:00,65.8,64.6,30.05,South,169,0.0,0.0,96,0.00,,,0.00,Wunderground v.1.15,2013-02-12 11:42:00,
2013-02-12 06:52:00,65.8,64.6,30.04,South,169,0.0,0.0,96,0.00,,,0.00,Wunderground v.1.15,2013-02-12 11:52:00,
2013-02-12 06:57:00,65.7,64.5,30.04,South,169,0.0,0.0,96,0.00,,,0.00,Wunderground v.1.15,2013-02-12 11:57:00,
2013-02-12 07:07:00,65.4,63.9,30.05,South,169,0.0,5.0,95,0.00,,,0.00,Wunderground v.1.15,2013-02-12 12:07:00,
2013-02-12 07:17:00,65.3,64.1,30.05,South,172,0.0,5.0,96,0.00,,,0.00,Wunderground v.1.15,2013-02-12 12:17:00,
2013-02-12 07:27:00,65.6,64.4,30.05,South,173,0.0,5.0,96,0.00,,,0.00,Wunderground v.1.15,2013-02-12 12:27:00,
2013-02-12 07:37:00,65.6,64.4,30.06,South,173,0.0,5.0,96,0.00,,,0.00,Wunderground v.1.15,2013-02-12 12:37:00,
2013-02-12 07:42:00,65.6,64.4,30.06,South,173,0.0,5.0,96,0.00,,,0.00,Wunderground v.1.15,2013-02-12 12:42:00,
2013-02-12 07:52:00,66.1,64.9,30.06,South,172,0.0,5.0,96,0.00,,,0.00,Wunderground v.1.15,2013-02-12 12:52:00,
2013-02-12 07:57:00,66.4,65.2,30.06,South,171,0.0,5.0,96,0.00,,,0.00,Wunderground v.1.15,2013-02-12 12:57:00,
2013-02-12 08:02:00,66.8,65.6,30.06,South,172,0.0,5.0,96,0.00,,,0.00,Wunderground v.1.15,2013-02-12 13:02:00,
2013-02-12 08:12:00,67.5,66.3,30.06,South,171,0.0,0.0,96,0.00,,,0.00,Wunderground v.1.15,2013-02-12 13:12:00,
2013-02-12 08:22:00,68.3,66.8,30.06,South,171,0.0,0.0,95,0.00,,,0.00,Wunderground v.1.15,2013-02-12 13:22:00,
2013-02-12 08:27:00,68.8,67.0,30.06,SSE,168,0.0,0.0,94,0.00,,,0.00,Wunderground v.1.15,2013-02-12 13:27:00,
2013-02-12 08:32:00,69.1,67.0,30.07,SSE,165,1.0,1.0,93,0.00,,,0.00,Wunderground v.1.15,2013-02-12 13:32:00,
2013-02-12 08:42:00,69.9,67.5,30.07,SSE,166,1.0,3.0,92,0.00,,,0.00,Wunderground v.1.15,2013-02-12 13:42:00,
2013-02-12 08:52:00,71.0,67.9,30.07,SSE,163,1.0,1.0,90,0.00,,,0.00,Wunderground v.1.15,2013-02-12 13:52:00,
2013-02-12 08:57:00,71.6,68.2,30.07,SSE,160,1.0,1.0,89,0.00,,,0.00,Wunderground v.1.15,2013-02-12 13:57:00,
2013-02-12 09:07:00,72.8,69.0,30.08,SSE,158,2.0,5.0,88,0.00,,,0.00,Wunderground v.1.15,2013-02-12 14:07:00,
2013-02-12 09:17:00,73.6,69.2,30.08,SSE,150,5.0,8.0,86,0.00,,,0.00,Wunderground v.1.15,2013-02-12 14:17:00,
2013-02-12 09:22:00,74.2,69.7,30.08,South,190,4.0,4.0,86,0.00,,,0.00,Wunderground v.1.15,2013-02-12 14:22:00,
2013-02-12 09:27:00,74.7,69.9,30.08,SE,145,3.0,4.0,85,0.00,,,0.00,Wunderground v.1.15,2013-02-12 14:27:00,
2013-02-12 09:32:00,74.7,69.2,30.08,South,174,5.0,5.0,83,0.00,,,0.00,Wunderground v.1.15,2013-02-12 14:32:00,
2013-02-12 09:42:00,75.0,69.5,30.08,SSW,198,5.0,7.0,83,0.00,,,0.00,Wunderground v.1.15,2013-02-12 14:42:00,
2013-02-12 09:52:00,75.8,69.9,30.09,South,176,4.0,4.0,82,0.00,,,0.00,Wunderground v.1.15,2013-02-12 14:52:00,
2013-02-12 09:57:00,76.0,69.7,30.09,South,175,4.0,7.0,81,0.00,,,0.00,Wunderground v.1.15,2013-02-12 14:57:00,
2013-02-12 10:07:00,76.0,69.7,30.09,SSE,148,7.0,8.0,81,0.00,,,0.00,Wunderground v.1.15,2013-02-12 15:07:00,
2013-02-12 10:17:00,76.7,70.1,30.09,SSW,194,5.0,6.0,80,0.00,,,0.00,Wunderground v.1.15,2013-02-12 15:17:00,
2013-02-12 10:27:00,77.1,70.1,30.09,SSE,151,5.0,10.0,79,0.00,,,0.00,Wunderground v.1.15,2013-02-12 15:27:00,
2013-02-12 10:32:00,77.4,70.0,30.09,SSE,159,5.0,5.0,78,0.00,,,0.00,Wunderground v.1.15,2013-02-12 15:32:00,
2013-02-12 10:37:00,77.4,70.4,30.09,South,184,5.0,6.0,79,0.00,,,0.00,Wunderground v.1.15,2013-02-12 15:37:00,
2013-02-12 10:47:00,77.5,70.1,30.10,SSW,202,6.0,7.0,78,0.00,,,0.00,Wunderground v.1.15,2013-02-12 15:47:00,
2013-02-12 10:57:00,77.7,69.9,30.10,SSE,166,7.0,7.0,77,0.00,,,0.00,Wunderground v.1.15,2013-02-12 15:57:00,
2013-02-12 11:02:00,77.6,70.2,30.10,South,173,7.0,15.0,78,0.00,,,0.00,Wunderground v.1.15,2013-02-12 16:02:00,
2013-02-12 11:12:00,78.5,70.3,30.10,SW,222,6.0,15.0,76,0.00,,,0.00,Wunderground v.1.15,2013-02-12 16:12:00,
2013-02-12 11:22:00,78.1,70.3,30.10,SSW,213,7.0,15.0,77,0.00,,,0.00,Wunderground v.1.15,2013-02-12 16:22:00,
2013-02-12 11:32:00,78.5,70.3,30.09,SSW,192,6.0,6.0,76,0.00,,,0.00,Wunderground v.1.15,2013-02-12 16:32:00,
2013-02-12 11:37:00,78.7,70.5,30.09,SSW,204,7.0,9.0,76,0.00,,,0.00,Wunderground v.1.15,2013-02-12 16:37:00,
2013-02-12 11:47:00,79.4,70.8,30.09,SSW,202,6.0,15.0,75,0.00,,,0.00,Wunderground v.1.15,2013-02-12 16:47:00,
2013-02-12 11:52:00,79.2,70.6,30.09,South,181,6.0,15.0,75,0.00,,,0.00,Wunderground v.1.15,2013-02-12 16:52:00,
2013-02-12 12:02:00,79.0,70.8,30.08,SSW,201,6.0,6.0,76,0.00,,,0.00,Wunderground v.1.15,2013-02-12 17:02:00,
2013-02-12 12:12:00,79.7,71.1,30.08,South,174,6.0,6.0,75,0.00,,,0.00,Wunderground v.1.15,2013-02-12 17:12:00,
2013-02-12 12:22:00,79.6,71.0,30.07,SSW,211,7.0,7.0,75,0.00,,,0.00,Wunderground v.1.15,2013-02-12 17:22:00,
2013-02-12 12:32:00,80.0,71.4,30.07,SW,234,6.0,6.0,75,0.00,,,0.00,Wunderground v.1.15,2013-02-12 17:32:00,
2013-02-12 12:42:00,79.8,71.2,30.07,SW,224,7.0,10.0,75,0.00,,,0.00,Wunderground v.1.15,2013-02-12 17:42:00,
2013-02-12 12:52:00,79.2,71.0,30.06,South,171,8.0,8.0,76,0.00,,,0.00,Wunderground v.1.15,2013-02-12 17:52:00,
2013-02-12 13:02:00,79.8,71.2,30.06,SW,225,6.0,15.0,75,0.00,,,0.00,Wunderground v.1.15,2013-02-12 18:02:00,
2013-02-12 13:12:00,79.5,71.3,30.06,SSW,203,8.0,8.0,76,0.00,,,0.00,Wunderground v.1.15,2013-02-12 18:12:00,
2013-02-12 13:17:00,79.5,71.3,30.06,South,189,7.0,15.0,76,0.00,,,0.00,Wunderground v.1.15,2013-02-12 18:17:00,
2013-02-12 13:27:00,79.4,71.2,30.06,South,169,6.0,15.0,76,0.00,,,0.00,Wunderground v.1.15,2013-02-12 18:27:00,
2013-02-12 13:32:00,80.0,71.8,30.04,SW,226,5.0,15.0,76,0.00,,,0.00,Wunderground v.1.15,2013-02-12 18:32:00,
2013-02-12 13:42:00,80.5,71.4,30.04,SSE,167,6.0,15.0,74,0.00,,,0.00,Wunderground v.1.15,2013-02-12 18:42:00,
2013-02-12 13:52:00,80.6,71.5,30.04,SSE,168,5.0,15.0,74,0.00,,,0.00,Wunderground v.1.15,2013-02-12 18:52:00,
2013-02-12 13:57:00,80.1,71.5,30.04,South,184,6.0,15.0,75,0.00,,,0.00,Wunderground v.1.15,2013-02-12 18:57:00,
2013-02-12 14:07:00,79.6,71.4,30.03,SSW,212,7.0,15.0,76,0.00,,,0.00,Wunderground v.1.15,2013-02-12 19:07:00,
2013-02-12 14:22:00,79.8,71.9,30.02,SSE,156,5.0,8.0,77,0.00,,,0.00,Wunderground v.1.15,2013-02-12 19:22:00,
2013-02-12 14:37:00,79.0,71.6,30.01,SSE,162,6.0,6.0,78,0.00,,,0.00,Wunderground v.1.15,2013-02-12 19:37:00,
2013-02-12 14:47:00,79.2,71.4,30.00,SSE,159,6.0,7.0,77,0.00,,,0.00,Wunderground v.1.15,2013-02-12 19:47:00,
2013-02-12 14:57:00,79.0,71.2,30.00,South,180,6.0,6.0,77,0.00,,,0.00,Wunderground v.1.15,2013-02-12 19:57:00,
2013-02-12 15:02:00,78.7,71.3,30.00,SSE,166,7.0,7.0,78,0.00,,,0.00,Wunderground v.1.15,2013-02-12 20:02:00,
2013-02-12 15:12:00,78.5,71.1,30.00,SSW,195,8.0,8.0,78,0.00,,,0.00,Wunderground v.1.15,2013-02-12 20:12:00,
2013-02-12 15:27:00,78.4,71.0,29.99,SSE,157,7.0,17.0,78,0.00,,,0.00,Wunderground v.1.15,2013-02-12 20:27:00,
2013-02-12 15:47:00,78.3,70.9,29.98,SSW,196,7.0,17.0,78,0.00,,,0.00,Wunderground v.1.15,2013-02-12 20:47:00,
2013-02-12 15:57:00,78.3,71.2,29.98,South,190,6.0,17.0,79,0.00,,,0.00,Wunderground v.1.15,2013-02-12 20:57:00,
2013-02-12 16:02:00,78.1,71.1,29.97,SSW,200,6.0,17.0,79,0.00,,,0.00,Wunderground v.1.15,2013-02-12 21:02:00,
2013-02-12 16:12:00,77.9,70.5,29.97,SSE,159,7.0,9.0,78,0.00,,,0.00,Wunderground v.1.15,2013-02-12 21:12:00,
2013-02-12 16:22:00,77.8,70.8,29.97,South,190,7.0,7.0,79,0.00,,,0.00,Wunderground v.1.15,2013-02-12 21:22:00,
2013-02-12 16:27:00,77.6,70.6,29.97,SW,215,6.0,7.0,79,0.00,,,0.00,Wunderground v.1.15,2013-02-12 21:27:00,
2013-02-12 16:32:00,77.4,70.7,29.97,SSW,205,6.0,6.0,80,0.00,,,0.00,Wunderground v.1.15,2013-02-12 21:32:00,
2013-02-12 16:42:00,77.3,70.6,29.97,SSW,197,6.0,11.0,80,0.00,,,0.00,Wunderground v.1.15,2013-02-12 21:42:00,
2013-02-12 16:52:00,77.0,70.4,29.97,SW,215,5.0,9.0,80,0.00,,,0.00,Wunderground v.1.15,2013-02-12 21:52:00,
2013-02-12 16:57:00,76.9,70.3,29.97,SSW,212,6.0,9.0,80,0.00,,,0.00,Wunderground v.1.15,2013-02-12 21:57:00,
2013-02-12 17:02:00,76.7,70.4,29.97,SSW,192,6.0,6.0,81,0.00,,,0.00,Wunderground v.1.15,2013-02-12 22:02:00,
2013-02-12 17:12:00,76.3,70.4,29.97,SSE,165,6.0,6.0,82,0.00,,,0.00,Wunderground v.1.15,2013-02-12 22:12:00,
2013-02-12 17:22:00,76.0,70.1,29.97,South,179,5.0,5.0,82,0.00,,,0.00,Wunderground v.1.15,2013-02-12 22:22:00,
2013-02-12 17:27:00,75.7,70.2,29.97,SW,217,5.0,6.0,83,0.00,,,0.00,Wunderground v.1.15,2013-02-12 22:27:00,
2013-02-12 17:37:00,75.3,69.8,29.97,South,175,5.0,20.0,83,0.00,,,0.00,Wunderground v.1.15,2013-02-12 22:37:00,
2013-02-12 17:47:00,74.6,69.8,29.97,SSW,213,4.0,9.0,85,0.00,,,0.00,Wunderground v.1.15,2013-02-12 22:47:00,
2013-02-12 18:02:00,73.8,69.3,29.97,South,183,3.0,20.0,86,0.00,,,0.00,Wunderground v.1.15,2013-02-12 23:02:00,
2013-02-12 18:12:00,73.3,69.2,29.97,South,175,2.0,4.0,87,0.00,,,0.00,Wunderground v.1.15,2013-02-12 23:12:00,
2013-02-12 18:17:00,73.1,69.0,29.98,SSW,213,2.0,4.0,87,0.00,,,0.00,Wunderground v.1.15,2013-02-12 23:17:00,
2013-02-12 18:22:00,72.9,69.1,29.98,SSW,205,2.0,2.0,88,0.00,,,0.00,Wunderground v.1.15,2013-02-12 23:22:00,
2013-02-12 18:32:00,72.5,68.7,29.98,SSW,213,0.0,0.0,88,0.00,,,0.00,Wunderground v.1.15,2013-02-12 23:32:00,
2013-02-12 18:42:00,72.0,68.6,29.98,SSW,194,1.0,1.0,89,0.00,,,0.00,Wunderground v.1.15,2013-02-12 23:42:00,
2013-02-12 18:47:00,71.9,68.5,29.97,SSW,196,1.0,6.0,89,0.00,,,0.00,Wunderground v.1.15,2013-02-12 23:47:00,
2013-02-12 18:57:00,71.6,68.5,29.97,SSW,192,0.0,1.0,90,0.00,,,0.00,Wunderground v.1.15,2013-02-12 23:57:00,
2013-02-12 19:07:00,71.4,68.6,29.97,South,180,1.0,16.0,91,0.00,,,0.00,Wunderground v.1.15,2013-02-13 00:07:00,
2013-02-12 19:17:00,71.2,68.4,29.98,SSW,196,0.0,16.0,91,0.00,,,0.00,Wunderground v.1.15,2013-02-13 00:17:00,
2013-02-12 19:22:00,71.1,68.3,29.98,South,190,0.0,16.0,91,0.00,,,0.00,Wunderground v.1.15,2013-02-13 00:22:00,
2013-02-12 19:32:00,71.0,68.6,29.98,SSW,202,0.0,16.0,92,0.00,,,0.00,Wunderground v.1.15,2013-02-13 00:32:00,
2013-02-12 19:37:00,70.9,68.5,29.98,SSW,202,0.0,16.0,92,0.00,,,0.00,Wunderground v.1.15,2013-02-13 00:37:00,
2013-02-12 19:47:00,70.7,68.3,29.98,SSW,195,0.0,16.0,92,0.00,,,0.00,Wunderground v.1.15,2013-02-13 00:47:00,
2013-02-12 19:52:00,70.6,68.2,29.98,South,191,0.0,16.0,92,0.00,,,0.00,Wunderground v.1.15,2013-02-13 00:52:00,
2013-02-12 20:02:00,70.5,68.4,29.98,SSW,201,0.0,16.0,93,0.00,,,0.00,Wunderground v.1.15,2013-02-13 01:02:00,
2013-02-12 20:07:00,70.5,68.4,29.98,SSW,199,0.0,16.0,93,0.00,,,0.00,Wunderground v.1.15,2013-02-13 01:07:00,
2013-02-12 20:17:00,70.3,68.2,29.98,SSW,198,0.0,0.0,93,0.00,,,0.00,Wunderground v.1.15,2013-02-13 01:17:00,
2013-02-12 20:27:00,70.3,68.2,29.98,SSW,199,0.0,0.0,93,0.00,,,0.00,Wunderground v.1.15,2013-02-13 01:27:00,
2013-02-12 20:32:00,70.3,68.2,29.99,SSW,198,0.0,0.0,93,0.00,,,0.00,Wunderground v.1.15,2013-02-13 01:32:00,
2013-02-12 20:37:00,70.3,68.2,29.99,SSW,197,0.0,0.0,93,0.00,,,0.00,Wunderground v.1.15,2013-02-13 01:37:00,
2013-02-12 20:47:00,70.2,68.1,29.99,SSW,198,0.0,0.0,93,0.00,,,0.00,Wunderground v.1.15,2013-02-13 01:47:00,
2013-02-12 20:57:00,70.1,68.0,29.99,SSW,197,0.0,0.0,93,0.00,,,0.00,Wunderground v.1.15,2013-02-13 01:57:00,
2013-02-12 21:02:00,70.0,67.9,29.99,SSW,197,0.0,11.0,93,0.00,,,0.00,Wunderground v.1.15,2013-02-13 02:02:00,
2013-02-12 21:12:00,69.8,68.0,29.99,SSW,197,0.0,11.0,94,0.00,,,0.00,Wunderground v.1.15,2013-02-13 02:12:00,
2013-02-12 21:17:00,69.8,68.0,30.00,SSW,197,0.0,11.0,94,0.00,,,0.00,Wunderground v.1.15,2013-02-13 02:17:00,
2013-02-12 21:27:00,69.8,68.0,30.00,SSW,197,0.0,11.0,94,0.00,,,0.00,Wunderground v.1.15,2013-02-13 02:27:00,
2013-02-12 21:37:00,69.8,68.0,30.00,SSW,196,0.0,11.0,94,0.00,,,0.00,Wunderground v.1.15,2013-02-13 02:37:00,
2013-02-12 21:42:00,69.7,68.2,30.00,SSW,196,0.0,11.0,95,0.00,,,0.00,Wunderground v.1.15,2013-02-13 02:42:00,
2013-02-12 21:47:00,69.8,68.3,30.00,SSW,196,0.0,11.0,95,0.00,,,0.00,Wunderground v.1.15,2013-02-13 02:47:00,
2013-02-12 21:57:00,70.0,68.5,30.00,SSW,194,0.0,11.0,95,0.00,,,0.00,Wunderground v.1.15,2013-02-13 02:57:00,
2013-02-12 22:07:00,69.9,68.4,30.00,SSW,192,0.0,11.0,95,0.00,,,0.00,Wunderground v.1.15,2013-02-13 03:07:00,
2013-02-12 22:12:00,69.9,68.4,30.00,South,191,0.0,0.0,95,0.00,,,0.00,Wunderground v.1.15,2013-02-13 03:12:00,
2013-02-12 22:17:00,69.9,68.4,30.00,South,190,0.0,0.0,95,0.00,,,0.00,Wunderground v.1.15,2013-02-13 03:17:00,
2013-02-12 22:27:00,69.9,68.4,30.00,South,189,0.0,0.0,95,0.00,,,0.00,Wunderground v.1.15,2013-02-13 03:27:00,
2013-02-12 22:37:00,70.0,68.5,30.00,South,176,0.0,0.0,95,0.00,,,0.00,Wunderground v.1.15,2013-02-13 03:37:00,
2013-02-12 22:42:00,70.0,68.5,30.00,South,176,0.0,0.0,95,0.00,,,0.00,Wunderground v.1.15,2013-02-13 03:42:00,
2013-02-12 22:52:00,70.0,68.5,29.99,South,177,0.0,0.0,95,0.00,,,0.00,Wunderground v.1.15,2013-02-13 03:52:00,
2013-02-12 22:57:00,70.1,68.6,29.99,South,179,1.0,1.0,95,0.00,,,0.00,Wunderground v.1.15,2013-02-13 03:57:00,
2013-02-12 23:07:00,70.1,68.6,29.99,South,178,0.0,3.0,95,0.00,,,0.00,Wunderground v.1.15,2013-02-13 04:07:00,
2013-02-12 23:17:00,70.0,68.2,29.99,South,186,1.0,3.0,94,0.00,,,0.00,Wunderground v.1.15,2013-02-13 04:17:00,
2013-02-12 23:22:00,70.0,68.5,29.99,South,175,0.0,3.0,95,0.00,,,0.00,Wunderground v.1.15,2013-02-13 04:22:00,
2013-02-12 23:32:00,70.0,68.2,29.99,South,182,1.0,1.0,94,0.00,,,0.00,Wunderground v.1.15,2013-02-13 04:32:00,
2013-02-12 23:42:00,70.1,68.3,29.99,SSE,167,1.0,3.0,94,0.00,,,0.00,Wunderground v.1.15,2013-02-13 04:42:00,
2013-02-12 23:47:00,70.2,68.4,29.99,SSE,168,1.0,3.0,94,0.00,,,0.00,Wunderground v.1.15,2013-02-13 04:47:00,
2013-02-12 23:57:00,70.1,68.3,29.99,South,172,2.0,9.0,94,0.00,,,0.00,Wunderground v.1.15,2013-02-13 04:57:00,